Location: Albuquerque Trailhead
(34.7934°N, 106.3736°W)
Time: 22:31:39
(UTC+00:00)

X-37B - Visible Passes

Search period start: 04 December 2022 00:00
Search period end: 14 December 2022 00:00
Orbit: 277 x 277 km, 45.0° (Epoch: 01 November)

Date Brightness Start Highest point End Pass type
(mag) Time Alt. Az. Time Alt. Az. Time Alt. Az.
05 Dec 1.7 00:58:12 10° S 01:00:03 19° SE 01:00:20 19° SE visible
06 Dec 0.5 00:58:18 10° SW 01:00:38 43° SE 01:01:14 34° ESE visible
07 Dec -0.1 00:58:51 10° WSW 01:01:18 76° NNW 01:02:05 37° NE visible
08 Dec 1.1 00:59:43 10° W 01:02:00 34° NNW 01:02:51 25° NNE visible
09 Dec 1.9 01:00:50 10° WNW 01:02:47 20° NNW 01:03:34 18° N visible
10 Dec 2.4 01:02:12 10° NW 01:03:37 14° NNW 01:04:15 13° N visible
11 Dec 2.7 01:03:53 10° NNW 01:04:31 11° NNW 01:04:54 10° N visible
